Location: ??
(35.5052°N, 139.7262°E)
Time: 14:53:05
(UTC+00:00)

Cosmos 2278 Rocket - Pass Details

Date: 26 October 2021
Orbit: 841 x 845 km, 71.0° (Epoch: 08 December)

Event Time Altitude Azimuth Distance (km) Brightness Sun altitude
Rises 10:33:39 0° 346° (NNW) 3,409 5.6 -33.3°
Reaches altitude 10° 10:36:17 10° 355° (N) 2,470 4.7 -33.9°
Enters shadow 10:36:34 11° 356° (N) 2,375 4.6 -33.9°
